529  
ASUS43 KFGF 172331  
RWRFGF  
PRAIRIE TO PINES WEATHER ROUNDUP  
NATIONAL WEATHER SERVICE EASTERN NORTH DAKOTA/GRAND FORKS ND  
500 PM CST THU JAN 17 2019  
 
**SATELLITE DATA USED TO AUGMENT SKY COVER AT AUTOMATED STATIONS**  
***** WEATHER ACROSS EASTERN NORTH DAKOTA *****  
 
CITY SKY/WX TMP DP RH WIND PRES REMARKS
 
GRAND FORKS FAIR 2 -4 76 NW7 30.22R WCI -11  
GRAND FRKS AFB FAIR 3 -3 74 N6 30.22R WCI -8  
GRAND FRKS NWS N/A 2 -1 88 N2 30.20R  
DEVILS LAKE CLOUDY 3 -3 76 N7 30.19R WCI -9  
FARGO CLOUDY 9 3 77 NW8 30.20R WCI -3  
WAHPETON ARPT CLOUDY 10 3 72 N9 30.19S WCI -2  

 
 
***** WEATHER ACROSS CENTRAL AND WESTERN NORTH DAKOTA *****  
 
CITY SKY/WX TMP DP RH WIND PRES REMARKS
 
BISMARCK CLOUDY 13 7 77 NE10 30.13R WCI 0  
MINOT CLOUDY 7 0 73 NW8 30.16S WCI -6  
JAMESTOWN FAIR 10 5 80 N6 30.14S WCI 0  
MINOT AFB CLOUDY 6 -1 74 N8 30.16S WCI -7  
GARRISON N/A 6 1 80 NE8 30.13F WCI -7  
WILLISTON LGT SNOW 12 4 70 E9 30.12S WCI 0  
DICKINSON CLOUDY 15 11 83 NE13 30.01F FOG WCI 1  
HETTINGER CLOUDY 21 18 88 E12 30.01R FOG WCI 9  

 
 
***** OTHER AIRPORT OBSERVATIONS IN OUR AREA *****  
 
CITY SKY/WX TMP DP RH WIND PRES REMARKS
 
WALHALLA N/A 1 -6 71 NW5 30.23R WCI -8  
GRAFTON AIRPOR FAIR 1 -2 85 CALM 30.26S  
VALLEY CITY AR CLOUDY 9 7 92 CALM 30.18S  
CANDO FAIR -4 -8 84 NW3 30.20S  
CAVALIER APRT FAIR 1 -4 78 N3 30.23S  
GWINNER N/A 10 7 85 N7 30.16S WCI 0  
ROLLA FAIR -6 -11 77 NW3 30.15R  
***** THE ABOVE OBSERVATIONS ARE NON NWS ARE NOT QUALITY  
CONTROLLED AND MAY MIS-REPORT RAIN FOR SNOW...  

 
 
***** WEATHER ACROSS NORTHERN MINNESOTA *****  
 
CITY SKY/WX TMP DP RH WIND PRES REMARKS
 
FLAG ISLAND FAIR 1 -9 60 NW15 30.13R WCI -18  
WARROAD FAIR 1 -6 71 W7 30.15R WCI -11  
ROSEAU FAIR 1 -6 71 W10 30.17R WCI -14  
HALLOCK N/A 0 -6 78 NW8 30.23R WCI -15  
THF RVR FALLS FAIR 1 -5 75 W9 30.18R WCI -14  
BAUDETTE FAIR 3 -6 66 W8 30.10R WCI -10  
WASKISH FAIR 3 -4 72 W7 30.12R WCI -9  
CROOKSTON FAIR 0 -6 78 N8 30.23R WCI -15  
STEPHEN NDAWN N/A 0 -6 78 NW5 N/A WCI -10  
GREENBUSH NDAW N/A 0 -8 71 W7 N/A WCI -13  

 
***** WEATHER ACROSS CENTRAL AND WEST MINNESOTA *****  
 
CITY SKY/WX TMP DP RH WIND PRES REMARKS
 
FOSSTON FAIR 0 -8 71 NW5 30.16S WCI -10  
BEMIDJI FAIR 4 -7 61 W7 30.12R WCI -8  
PARK RAPIDS CLOUDY 11 -1 58 NW9 30.09R WCI -2  
ELBOW LAKE CLOUDY 10 4 77 W9 30.16R WCI -3  
WADENA CLOUDY 10 1 67 W5 30.11S WCI 2  
DETROIT LAKES FAIR 10 5 79 N8 30.14R WCI -1  
MOORHEAD MOCLDY 9 1 72 NW8 30.21R WCI -4  
FERGUS FALLS CLOUDY 9 3 78 NW8 30.17R WCI -4  
MORRIS MN CLOUDY 10 1 67 NW9 30.17R WCI -2  
STAPLES CLOUDY 10 0 61 W6 30.11S WCI 1  

 
***** WEATHER ELSEWHERE ACROSS MINNESOTA *****  
 
CITY SKY/WX TMP DP RH WIND PRES REMARKS
 
DULUTH FAIR 13 -6 42 NW7 30.02R WCI 3  
INTRNTL FALLS FAIR 4 -5 66 W6 30.09R WCI -7  
ELY FAIR 3 -8 60 W3 30.02R  
CLOQUET FAIR 10 -8 44 W7 30.05S WCI 0  
WHEATON CLOUDY 10 5 79 NW7 30.20R WCI 0  
BRAINERD CLOUDY 13 -3 49 W7 30.11R WCI 3  
HIBBING FAIR 8 -7 50 W6 30.04S WCI -2  
ALEXANDRIA CLOUDY 14 2 58 NW7 30.12R WCI 4  
SAINT CLOUD CLOUDY 15 3 59 NW9 30.11F WCI 3  
MINNEAPOLIS FAIR 20 7 57 NW14 30.11R WCI 7  

 
 
***** WEATHER ACROSS SOUTH DAKOTA *****  
 
CITY SKY/WX TMP DP RH WIND PRES REMARKS
 
SIOUX FALLS MOCLDY 21 14 74 N3 30.11S  
BROOKINGS CLOUDY 20 15 81 N5 30.10 WCI 13  
WATERTOWN CLOUDY 20 14 77 NW6 30.09S WCI 12  
HURON CLOUDY 21 15 78 NE3 30.13R  
SISSETON N/A 11 7 84 N8 30.16S WCI -1  
ABERDEEN CLOUDY 19 13 77 E6 30.14S WCI 11  
MITCHELL CLOUDY 22 16 78 CALM 30.14R  
PIERRE CLOUDY 22 17 81 E7 30.07F WCI 13  
MOBRIDGE CLOUDY 24 19 81 N7 30.06R WCI 16  
RAPID CITY FOG 23 20 88 SE7 29.94S VSB 1/2 WCI 15  

 
 
***** SOME WEATHER IN NEARBY STATES *****  
 
CITY SKY/WX TMP DP RH WIND PRES REMARKS
 
GLASGOW MT LGT SNOW 14 8 77 E18 30.03R WCI -3  
GREAT FALLS MT LGT SNOW 19 18 95 NE7 29.83F VSB 1 WCI 10  
CHEYENNE WY FAIR 47 18 31 S8 29.84F  
SCOTTSBLUFF NE CLOUDY 49 29 46 SE8 29.84F  
OMAHA NE CLOUDY 30 23 75 N5 30.12R  
DES MOINES IA CLOUDY 28 23 81 NW10 30.10F WCI 19  
DAVENPORT IA CLOUDY 31 28 89 NW9 30.07R FOG WCI 23  
CHICAGO IL CLOUDY 33 27 78 W6 30.00R  
EAU CLAIRE WI CLOUDY 20 11 68 W8 30.05R WCI 10  
LA CROSSE WI CLOUDY 27 20 75 NW9 30.06R WCI 18  

 
 
***** SOME NATIONAL WEATHER *****  
 
CITY SKY/WX TMP DP RH WIND PRES REMARKS
 
LA GUARDIA NY CLOUDY 32 9 38 SE7 30.31F  
RALEIGH NC LGT RAIN 45 37 73 CALM 30.18F  
ATLANTA GA LGT RAIN 46 43 89 SE6 30.16F FOG  
NEW ORLEANS LA MOCLDY 65 61 87 S8 30.10F  
OKLAHOMA CITY FAIR 47 38 71 W3 30.10F  
ALBUQUERQUE NM PTSUNNY 54 27 35 SW7 30.14S  
SALT LAKE CITY RAIN 38 27 64 SE14 29.93F  
LOS ANGELES CA CLOUDY 59 59 100 W9 30.14  
BOISE ID CLOUDY 48 32 53 E7 29.76R  
SEATTLE WA CLOUDY 55 39 54 S16 29.54R  

 
 
*** WEATHER ACROSS MANITOBA...SASKATCHEWAN AND ONTARIO ***  
***ONTARIO***  
 
CITY SKY/WX TMP DP RH WIND PRES REMARKS
 
GERALDTON CLEAR -4 -11 71 W8 29.91F WCI -19  
THUNDER BAY PTCLDY 9 0 66 W6 30.02S WCI -1  
SIOUX LOOKOUT CLEAR 0 -9 65 W6 29.97R WCI -12  
TORONTO CLOUDY 23 10 58 E6 30.11S WCI 16  
BIG TROUT LK FLURRIES -22 -31 63 NW12G18 29.97 WCI -45  
PICKLE LAKE PTCLDY -8 -15 71 W12G17 29.89R WCI -27  
DRYDEN CLEAR 1 -8 66 W12G18 30.00R WCI -15  
KENORA CLEAR 0 -11 60 NW10 30.07R WCI -17  

 
*** MANITOBA***  
 
CITY SKY/WX TMP DP RH WIND PRES REMARKS
 
BRANDON PTCLDY -2 -13 60 W16 30.18S WCI -23  
DAUPHIN CLEAR -9 -15 77 NE5 30.22R WCI -21  
ISLAND LAKE PTCLDY -24 -31 69 NW10 30.09R WCI -46  
PILOT MOUND N/A -2 -8 78 W9 N/A WCI -18  
THE PAS CLEAR -15 -22 70 W13 30.26R WCI -37  
THOMPSON CRYSTALS -22 -31 63 NW12 30.15R WCI -45  
WINNIPEG CLEAR -8 -13 77 W8 30.23R WCI -23  
LYNN LAKE CLEAR -26 -31 75 NW13 30.16R WCI -50  
CHURCHILL MOCLDY -26 -31 75 NW20G29 30.08R BLWGSNOWWCI -55  

 
***SASKATCHEWAN***  
 
CITY SKY/WX TMP DP RH WIND PRES REMARKS
 
ESTEVAN CLOUDY 5 0 78 N10 30.16S WCI -10  
KINDERSLEY MOCLDY 0 -6 78 E14 30.15R WCI -19  
LLOYDMINSTER PTCLDY -15 -20 76 E5 30.19F WCI -27  
PRINCE ALBERT PTCLDY -11 -20 64 NW9 30.30R WCI -29  
REGINA PTCLDY -2 -9 71 N9 30.20F WCI -18  
YORKTON CLEAR -6 -15 65 NW9 30.20S WCI -22  
N. BATTLEFORD CLEAR -11 -20 64 NE5 30.27F WCI -23  
LA RONGE CLEAR -17 -24 70 NW8 30.32R WCI -34  
SASKATOON PTCLDY -6 -15 65 N3 30.28F  
SWIFT CURRENT FLURRIES 3 -2 78 E16 30.06S WCI -16  

 
NOTE: THESE ARE AUTOMATED STATIONS WITH LIMITED QUALITY CONTROL  
"FAIR" INDICATES FEW OR NO CLOUDS BELOW 12,000 FEET WITH NO  
SIGNIFICANT WEATHER AND/OR S TO VISIBILITY
.  
SKY/WX - SKY CONDITION AND SIGNIFICANT WEATHER.  
TMP - AIR TEMPERATURE. DP - DEWPOINT TEMPERATURE.  
RH - RELATIVE HUMIDITY. PRES - PRESSURE.  
HX - HEAT INDEX. WCI - WIND CHILL INDEX.  
$  
 
 
CLICK HERE TO GO TO PREVIOUS BULLETINS.

The Nexlab ND Page
The Nexlab MN Page Main Text Page